Погода в Цебриково

Украина / Одесская область     47°08′42″N   30°06′15″E
темп.,
°C
ветер,
м/с
пор.,
м/с
влажн.,
%
обл.,
%
осадки,
мм/ч
давл.,
гПа
погр.,
м
2 марта, вт
вт223:00+1с3781100 0.1 1033395
02:000ссз3585100 0.1 1034187
05:000з228786 0.0 103264
08:00+1з348468 0.0 1031179
11:00+5з57650 0.0 1030806
14:00+8з79594 0.0 1027799
17:00+7зсз6116564 0.0 1025734
20:00+5зсз6157535 0.0 1024477
3 марта, ср
ср323:00+4сз6147917 0.0 1025596
02:00+3ссз5108441 0.0 1027762
05:00+3ссз41072100 0.0 1028566
08:00+3сз598279 0.0 1030409
11:00+6ссз56590 0.0 1030940
14:00+8сз45450 0.0 10291257
17:00+7зсз355392 0.0 1028331
20:00+4з226292 0.0 102822
4 марта, чт
чт423:00+3зюз226521 0.0 102722
02:00+2ююз347011 0.0 102541
05:00+1ююз34810 0.0 102355
08:00+3ююз49820 0.0 1021250
11:00+8ююз69660 0.0 1018498
14:00+12юз68548 0.0 1016814
17:00+11зюз356151 0.0 1014153
20:00+7з336525 0.0 101424
5 марта, пт
пт523:00+6зюз11610 0.0 101322
02:00+6ююз126012 0.0 101322
05:00+5ююв126596 0.0 101222
08:00+5ююв227593 0.0 101128
11:00+11юз345565 0.0 1010346
14:00+14сз454233 0.0 10101287
17:00+11ссз475924 0.0 1010373
20:00+7ссв598357 0.0 1012322
6 марта, сб
сб623:00+6с3689100 0.0 1014427
02:00+3с71095100 1.4 1015421
05:00+1ссв81288100 0.1 1017747
08:00+1ссв71068100 0.2 10201005
11:00+2с7950100 0.0 10221328
14:00+3с7838100 0.0 10231528
17:00+2с693867 0.0 10241993
20:000сз365233 0.0 1026179